User: anonymous   Login
Location: Riverside
(39.1734°N, 77.8561°W)
Time: 16:18:56
(UTC+00:00)
Language:

BEESAT 3 - Orbit

View from above orbital plane
View from above orbital plane
View from above satellite
View from above satellite

Ground track
Ground track

The orbit data is extracted from the following two-line orbital elements,

1 39134U 13015E   19138.89969987  .00001175  00000-0  63155-4 0  9995
2 39134  64.8619 120.1918 0028169 309.0951  50.7671 15.20083253335917
Epoch (UTC): 18 May 2019 21:35:34
Eccentricity: 0.0028169
inclination: 64.8619°
perigee height: 486 km
apogee height: 525 km
right ascension of ascending node: 120.1918°
argument of perigee: 309.0951°
revolutions per day: 15.20083253
mean anomaly at epoch: 50.7671°
orbit number at epoch: 33591

The dashed part of the orbit path shows where the satellite is in the earth's shadow,  

DLR